CAPE
1214 860 526 900 974 887 797 538 332 330 344 424 508 614 656 746 777 903 1016 1116 1122 1099 1010 839 805 750 731 743 810 785 690 577 503 498 598 657 775 714 589 495 487 512
931 985 911 951 1014 960 814 552 353 314 319 412 446 510 675 735 792 782 844 905 968 939 830 748 760 813 855 838 795 697 670 570 528 538 549 532 682 776 723 550 568 516
878 869 1042 1014 1034 886 693 554 444 388 358 479 609 628 693 754 794 782 870 970 940 887 855 864 889 877 818 742 686 669 667 569 506 555 629 652 594 730 779 678 591 513
685 846 856 960 866 779 744 564 495 466 446 499 597 686 728 769 793 876 925 1042 1034 862 910 1030 949 773 668 650 588 575 652 596 480 553 714 752 707 744 730 658 605 597
838 847 802 716 668 752 767 725 541 506 523 543 539 584 625 680 748 924 1038 1023 894 861 989 1053 933 761 675 639 569 549 601 615 568 636 749 834 791 729 681 575 562 577
912 878 915 566 617 685 671 613 559 514 539 559 548 537 562 620 722 889 951 896 948 1015 1054 924 837 814 778 625 581 577 568 637 652 685 761 855 860 792 759 798 798 709
718 814 844 687 605 618 660 626 495 488 540 574 588 582 570 748 920 973 904 967 1034 1044 915 904 912 885 782 666 612 561 596 736 694 730 857 930 902 803 746 774 814 807
535 612 728 674 603 557 606 480 374 472 482 543 610 636 761 940 1022 1057 976 995 1097 976 839 917 934 892 812 730 667 607 567 705 724 725 855 914 846 746 645 636 727 748
532 679 794 710 684 667 620 496 372 538 536 579 576 720 937 998 1015 1022 946 1022 1010 862 846 864 893 849 835 762 706 643 546 682 763 738 763 771 752 659 576 550 725 803
282 546 759 866 799 768 711 608 493 459 530 542 640 691 982 1037 920 882 830 882 892 823 788 830 828 799 740 680 656 657 611 686 603 520 590 678 724 619 432 500 692 827
276 354 557 762 775 703 636 585 537 350 351 334 479 453 828 956 829 773 718 788 828 796 753 747 745 701 626 576 562 547 507 482 492 538 570 596 656 708 585 493 642 734
343 366 461 615 675 562 572 606 556 378 341 513 319 595 700 750 762 701 626 710 724 706 709 702 644 586 525 514 483 454 465 510 541 596 620 609 613 608 558 418 542 617
331 416 479 482 388 420 493 521 454 353 399 310 73 580 550 507 514 456 336 557 629 613 649 622 545 501 463 460 439 412 453 520 515 522 559 549 532 526 433 366 394 464
319 494 479 420 434 433 416 397 354 370 333 121 73 504 510 526 436 347 484 551 558 554 522 489 457 433 435 449 428 408 472 531 522 487 478 473 531 504 436 467 512 523
354 512 516 492 433 472 423 318 304 164 246 202 140 345 253 228 182 269 372 398 401 414 414 403 389 364 374 68 396 418 492 497 500 459 419 461 505 511 504 545 611 581
421 567 582 563 493 481 463 365 331 268 241 120 0 0 0 0 0 0 0 203 334 356 377 410 370 209 0 0 0 226 378 415 439 426 383 364 378 376 473 568 676 756
378 488 554 565 552 439 466 404 373 325 160 79 6 0 0 0 0 0 0 0 0 11 249 345 326 0 0 0 0 0 0 191 354 389 388 346 217 27 419 550 610 744
270 353 430 528 557 479 418 466 371 289 169 92 0 0 0 0 0 0 0 0 0 0 217 266 62 0 0 0 0 0 0 0 0 0 0 260 8 0 0 328 483 588
252 252 407 452 462 536 476 457 354 197 165 222 196 0 28 120 0 0 0 0 0 80 105 0 0 0 0 0 0 0 0 0 0 0 0 0 0 0 0 304 410 407
313 216 168 277 376 396 484 436 334 196 169 176 116 78 163 108 0 0 0 0 0 51 72 0 0 0 0 0 0 0 0 0 0 0 0 0 0 0 0 100 66 0
0 103 186 100 37 243 383 491 335 139 147 156 133 178 172 0 0 0 0 0 0 0 0 0 0 0 0 0 0 0 0 0 0 0 0 0 0 0 0 0 0 0
0 16 100 222 225 42 61 309 258 189 144 166 148 161 122 33 0 0 0 0 0 0 0 0 0 0 0 0 0 0 0 0 0 0 0 0 0 0 0 0 0 0
0 0 5 96 177 182 10 102 271 186 173 138 113 69 94 44 2 0 0 0 63 72 0 15 73 64 0 0 0 0 0 7 0 0 1 6 0 0 0 0 0 0
0 4 11 34 76 112 38 33 32 48 70 139 65 27 41 27 13 19 0 0 1 0 2 61 70 37 0 0 2 0 0 0 6 10 7 7 6 1 1 0 0 0
0 1 28 31 8 29 14 18 68 40 29 50 54 19 28 26 11 0 0 0 1 3 1 24 22 0 0 0 0 2 0 0 0 0 2 9 9 6 2 0 0 0
0 0 0 56 48 33 40 25 16 13 23 32 89 6 20 17 6 6 0 0 0 0 0 2 2 0 0 0 0 0 0 0 0 0 0 11 11 7 0 11 19 15
Wind_Speed
25 25 23 20 16 14 14 15 17 18 18 17 16 14 12 13 19 19 19 17 14 14 15 14 14 14 15 16 15 15 15 15 15 16 16 17 17 19 19 19 20 19
28 28 27 24 19 16 15 15 16 18 18 17 15 12 11 15 17 17 18 15 13 13 14 14 14 14 15 15 15 15 16 16 16 17 17 17 17 18 18 19 19 21
27 27 28 29 25 21 17 16 17 18 19 18 15 12 11 15 14 15 16 14 12 12 13 14 15 15 15 15 16 16 16 16 16 16 17 17 19 18 18 19 20 21
30 31 34 35 32 27 21 17 18 21 23 20 14 12 13 14 13 13 14 13 14 12 14 15 15 16 16 16 16 16 16 16 16 18 18 19 19 20 19 19 21 21
31 34 33 28 28 26 23 18 18 22 21 18 17 15 13 13 12 13 14 14 15 14 16 16 16 16 16 16 16 16 17 17 18 19 19 18 19 20 20 20 19 19
29 30 25 24 24 24 22 20 21 23 22 20 17 17 16 14 13 13 13 13 15 16 16 16 16 16 15 15 15 15 17 17 18 18 18 18 19 19 20 19 19 18
25 26 29 28 26 23 23 23 23 24 23 20 20 18 17 15 14 13 12 12 15 16 15 14 15 15 15 15 16 16 16 17 18 17 18 18 20 19 19 19 18 18
22 28 30 29 26 24 22 22 23 24 24 21 17 17 17 14 13 12 12 12 15 15 15 14 15 15 16 16 17 17 17 17 18 18 18 19 19 19 19 19 19 18
24 25 27 26 24 23 23 21 23 24 26 22 18 16 17 15 14 13 12 12 13 14 15 14 14 15 16 17 17 17 18 17 17 18 18 19 19 19 19 20 20 18
22 23 24 23 21 20 22 23 23 22 25 25 20 18 16 17 17 15 13 11 11 13 15 14 14 15 15 15 16 17 18 18 17 17 18 18 18 19 20 20 19 19
19 21 20 20 20 21 21 22 20 17 21 20 19 17 18 19 18 16 14 12 12 13 15 15 14 14 14 14 15 16 16 17 16 17 17 17 18 19 20 20 21 19
22 22 20 20 22 23 22 21 19 18 18 17 17 14 19 19 17 16 15 14 14 14 15 15 14 13 13 13 15 15 14 14 15 15 16 17 18 20 21 22 22 20
24 24 23 22 22 22 21 20 20 19 17 16 nan 15 15 16 16 15 16 16 16 16 15 15 14 14 13 14 15 14 13 14 15 15 17 18 19 21 22 22 22 21
25 27 24 21 23 23 21 20 21 20 19 19 nan 13 12 14 15 16 19 20 20 19 19 18 17 16 15 15 15 15 15 15 15 17 18 18 19 21 21 21 21 22
22 26 23 20 21 21 21 21 22 23 24 22 18 13 15 17 19 21 23 24 25 24 23 21 20 18 18 nan 16 16 16 16 16 17 18 18 19 20 20 21 21 21
18 21 21 20 20 19 20 22 24 26 27 26 nan nan nan nan nan nan nan 25 26 27 25 24 23 21 nan nan nan 18 18 17 17 18 19 20 21 23 25 25 23 22
15 15 14 16 17 17 19 21 22 23 25 nan nan nan nan nan nan nan nan nan nan nan 27 26 24 nan nan nan nan nan nan 19 19 19 21 22 24 nan 26 27 25 25
16 14 12 16 19 19 19 18 19 21 22 nan nan nan nan nan nan nan nan nan nan nan 30 28 nan nan nan nan nan nan nan nan nan nan nan 26 nan nan nan 30 29 28
16 14 14 14 19 20 20 20 21 22 23 22 25 nan nan 29 nan nan nan nan nan nan 33 nan nan nan nan nan nan nan nan nan nan nan nan nan nan nan nan 32 31 31
22 19 20 22 18 18 22 25 24 25 27 26 26 nan 32 31 nan nan nan nan nan nan nan nan nan nan nan nan nan nan nan nan nan nan nan nan nan nan nan 34 nan nan
nan 24 24 nan nan 20 21 25 25 29 31 30 30 32 33 nan nan nan nan nan nan nan nan nan nan nan nan nan nan nan nan nan nan nan nan nan nan nan nan nan nan nan
nan nan 26 26 24 nan nan 25 29 27 29 31 34 35 36 nan nan nan nan nan nan nan nan nan nan nan nan nan nan nan nan nan nan nan nan nan nan nan nan nan nan nan
nan nan nan nan 28 29 nan 32 28 29 27 26 35 nan nan nan nan nan nan nan nan nan nan nan nan nan nan nan nan nan nan nan nan nan nan nan nan nan nan nan nan nan
nan nan nan nan nan 32 nan nan nan nan nan 28 nan nan nan nan nan nan nan nan nan nan nan nan nan nan nan nan nan nan nan nan nan nan nan nan nan nan nan nan nan nan
nan nan nan nan nan nan nan nan nan nan nan nan nan nan nan nan nan nan nan nan nan nan nan nan nan nan nan nan nan nan nan nan nan nan nan nan nan nan nan nan nan nan
nan nan nan nan nan nan nan nan nan nan nan nan nan nan nan nan nan nan nan nan nan nan nan nan nan nan nan nan nan nan nan nan nan nan nan nan nan nan nan nan nan nan
Wind_Direction
239 232 242 242 245 242 246 249 249 250 244 238 235 233 239 240 244 250 249 247 242 244 250 255 255 257 260 262 263 260 260 263 260 259 258 257 255 257 256 254 253 256
226 224 231 241 237 231 234 237 242 246 240 232 225 221 219 235 240 249 249 246 241 242 248 254 257 259 263 266 268 270 267 266 268 261 266 266 262 262 261 261 260 254
245 233 240 253 247 236 232 230 233 237 236 229 219 209 213 227 236 242 249 248 247 248 252 253 253 257 261 263 267 269 270 270 272 268 268 270 263 264 262 263 259 261
247 239 238 244 244 234 224 222 226 231 228 224 209 202 210 219 226 237 243 251 252 252 253 252 256 256 260 264 267 269 271 270 269 267 265 261 263 263 262 259 257 256
256 245 244 243 242 237 226 214 221 229 227 218 205 198 203 211 222 230 237 245 254 254 254 255 255 258 262 267 271 272 272 269 267 268 267 266 262 263 259 258 256 255
257 248 247 235 235 240 227 212 215 223 223 217 203 200 200 208 216 228 237 246 252 254 254 256 259 261 268 271 272 272 271 269 269 270 270 268 264 258 256 254 255 254
249 239 233 224 224 234 224 207 210 220 220 216 210 202 209 211 215 221 230 239 245 249 253 258 264 265 267 269 268 268 266 266 268 271 270 263 262 260 253 254 254 252
227 228 225 219 223 235 232 210 204 214 219 214 211 207 219 220 221 222 226 229 235 242 244 251 258 261 264 266 266 266 268 264 268 269 265 261 259 258 255 253 251 250
221 220 219 222 233 242 237 219 203 206 214 210 202 214 218 222 227 229 229 228 231 238 242 246 255 260 263 268 269 272 272 270 269 268 265 262 259 257 256 252 250 249
215 211 222 229 237 240 237 227 215 203 214 212 196 204 223 216 225 228 224 228 232 235 240 243 251 258 264 267 271 271 270 270 267 263 259 258 257 256 255 253 252 248
221 218 223 231 230 232 234 234 227 213 219 221 203 199 215 223 221 224 224 224 228 233 240 244 251 257 262 264 263 264 268 267 265 261 257 255 255 257 258 255 252 250
225 221 219 220 224 228 232 234 235 223 223 225 225 207 219 224 231 226 225 223 221 229 239 246 251 257 263 266 267 265 263 262 261 259 255 253 253 253 254 251 251 248
223 218 214 214 221 228 231 235 241 236 228 231 nan 228 230 236 233 240 233 230 226 230 238 247 254 256 258 259 261 266 264 260 258 256 253 251 249 250 249 249 249 248
225 219 214 213 216 224 227 232 240 243 234 224 nan 234 239 247 246 245 241 237 235 236 237 243 250 255 257 258 260 263 260 255 255 257 255 251 247 245 244 245 247 247
202 214 221 218 215 221 228 234 239 242 241 238 234 234 240 245 245 247 248 244 237 237 238 239 247 253 257 nan 264 260 260 259 256 255 255 252 245 239 236 237 241 246
184 195 212 224 217 219 230 238 240 236 236 240 nan nan nan nan nan nan nan 257 252 241 237 240 242 242 nan nan nan 262 263 260 258 256 254 249 245 240 235 235 239 243
195 194 211 222 230 228 230 238 241 241 241 nan nan nan nan nan nan nan nan nan nan nan 244 239 239 nan nan nan nan nan nan 259 259 257 253 250 246 nan 246 245 242 245
210 203 223 233 230 235 240 241 243 246 246 nan nan nan nan nan nan nan nan nan nan nan 246 240 nan nan nan nan nan nan nan nan nan nan nan 249 nan nan nan 250 250 248
224 226 227 241 247 250 256 254 254 253 249 248 254 nan nan 253 nan nan nan nan nan nan 244 nan nan nan nan nan nan nan nan nan nan nan nan nan nan nan nan 252 252 251
232 234 234 227 237 255 255 253 257 259 255 246 246 nan 249 249 nan nan nan nan nan nan nan nan nan nan nan nan nan nan nan nan nan nan nan nan nan nan nan 250 nan nan
nan 237 235 nan nan 240 255 260 255 257 255 253 254 253 249 nan nan nan nan nan nan nan nan nan nan nan nan nan nan nan nan nan nan nan nan nan nan nan nan nan nan nan
nan nan 240 239 238 nan nan 259 262 260 265 261 254 251 250 nan nan nan nan nan nan nan nan nan nan nan nan nan nan nan nan nan nan nan nan nan nan nan nan nan nan nan
nan nan nan nan 240 243 nan 244 245 255 256 256 258 nan nan nan nan nan nan nan nan nan nan nan nan nan nan nan nan nan nan nan nan nan nan nan nan nan nan nan nan nan
nan nan nan nan nan 243 nan nan nan nan nan 248 nan nan nan nan nan nan nan nan nan nan nan nan nan nan nan nan nan nan nan nan nan nan nan nan nan nan nan nan nan nan
nan nan nan nan nan nan nan nan nan nan nan nan nan nan nan nan nan nan nan nan nan nan nan nan nan nan nan nan nan nan nan nan nan nan nan nan nan nan nan nan nan nan
nan nan nan nan nan nan nan nan nan nan nan nan nan nan nan nan nan nan nan nan nan nan nan nan nan nan nan nan nan nan nan nan nan nan nan nan nan nan nan nan nan nan